Satellite-Ground Cal/Val Site Overpasses Predictions

Prediction of Satellite NPP Overpassing Cal/Val Site: Antarctic Dome C

Ground Cal/Val Site Location: Latitude: -75.10, Longitude: 123.35; Satellite-Ground Site NADIR distance within 100 km.

Table of predicted overpasses for the next 14.0 days since TLE Epoch: 1/27/2016
Interval Starting Time Ending Time Minimum Distance Time Minimum Distance (km)
1 01/27/2016 14:56:41 01/27/2016 14:57:10 01/27/2016 14:56:56 19.40
2 01/28/2016 14:37:59 01/28/2016 14:38:13 01/28/2016 14:38:06 87.70
3 01/29/2016 07:39:30 01/29/2016 07:39:57 01/29/2016 07:39:43 38.14
4 01/30/2016 07:20:43 01/30/2016 07:21:03 01/30/2016 07:20:53 71.98
5 02/01/2016 15:02:55 02/01/2016 15:03:19 02/01/2016 15:03:07 56.21
6 02/02/2016 14:44:04 02/02/2016 14:44:29 02/02/2016 14:44:16 53.06
7 02/03/2016 07:45:45 02/03/2016 07:46:04 02/03/2016 07:45:55 73.10
8 02/04/2016 07:26:50 02/04/2016 07:27:17 02/04/2016 07:27:04 34.94
9 02/06/2016 15:09:13 02/06/2016 15:09:23 02/06/2016 15:09:18 93.60
10 02/07/2016 14:50:13 02/07/2016 14:50:42 02/07/2016 14:50:27 17.82


NCC Satellite Cal/Val Overpasses Prediction Service
